[[{"header":{"parameterUnit":"m.s-1","parameterCategory":1,"la1":30.2991,"la2":30.254,"lo1":-89.0895,"lo2":-89.0444,"dy":0.0017,"dx":0.0017,"nx":28,"ny":28,"refTime":"2025-04-29T09:00:00:Z","depth":0,"parameterNumber":2,"parameterNumberName":"U-component_of_WINDS"},"data":[0,0,0,0,0,0,0,0,0,0,0,0,0,0,0,0,0,0,0,0,0,0,0,0,0,0,0,0,0,0,0,0,0,0,0,0,0,0,0,0,0,0,0,0,0,0,0,0,0,0,0,0,0,0,0,0,0,0,-1.4341,-1.4341,0,-1.436,-1.436,-1.436,-1.4354,-1.4353,-1.4353,-1.4352,-1.4373,-1.4374,-1.4375,0,0,0,0,0,0,0,0,0,0,0,0,0,-1.43,-1.4301,-1.4341,-1.4341,-1.4341,-1.436,-1.436,-1.436,-1.4354,-1.4353,-1.4353,-1.4352,-1.4373,-1.4374,-1.4375,0,0,0,0,0,0,0,0,0,0,0,0,0,-1.4318,-1.4301,-1.4341,-1.434,-1.434,-1.436,-1.436,-1.436,-1.4354,-1.4353,-1.4352,-1.4352,-1.4372,-1.4374,-1.4375,-1.4397,0,0,-1.4379,-1.438,0,0,0,0,0,0,0,0,-1.4317,-1.432,-1.434,-1.434,-1.434,-1.4354,-1.4353,-1.4372,-1.4354,-1.4349,-1.4352,-1.4352,-1.4367,-1.4369,-1.4374,-1.4398,-1.4398,-1.438,-1.438,-1.4381,-1.4381,0,0,0,0,0,0,0,-1.4316,-1.4319,-1.4348,-1.434,-1.434,-1.4339,-1.4341,-1.4357,-1.4361,-1.4349,-1.4349,-1.4351,-1.4367,-1.4373,-1.4374,-1.4399,-1.438,-1.4381,-1.4382,-1.4382,-1.4441,-1.4441,0,0,0,0,0,0,-1.4314,-1.4318,-1.4348,-1.4349,-1.4327,-1.4341,-1.4343,-1.435,-1.4361,-1.4362,-1.4351,-1.435,-1.437,-1.4373,-1.4375,-1.4401,-1.4381,-1.4382,-1.4383,-1.444,-1.4441,-1.4442,0,0,0,0,0,0,-1.4314,-1.4317,-1.4347,-1.4333,-1.4337,-1.4342,-1.435,-1.4351,-1.4356,-1.4363,-1.4364,-1.4356,-1.437,-1.4373,-1.4391,-1.4401,-1.4383,-1.4384,-1.4439,-1.444,-1.4441,-1.4452,0,0,0,0,0,0,-1.4313,-1.4317,-1.4325,-1.4333,-1.4338,-1.4362,-1.4351,-1.4351,-1.4358,-1.4357,-1.4367,-1.4368,-1.437,-1.4389,-1.4393,-1.4403,-1.4385,-1.4438,-1.444,-1.4441,-1.4451,-1.4453,-1.4455,0,0,0,0,0,-1.4311,-1.4327,-1.4325,-1.4329,-1.4348,-1.4363,-1.4365,-1.4366,-1.4359,-1.4367,-1.4372,-1.4368,-1.44,-1.4391,-1.4395,-1.4406,-1.4438,-1.4439,-1.4441,-1.445,-1.4453,-1.4455,0,0,0,0,0,0,-1.432,-1.4329,-1.4326,-1.4346,-1.4353,-1.4362,-1.4372,-1.4369,-1.438,-1.4378,-1.4379,-1.4382,-1.44,-1.4405,-1.4395,-1.4427,-1.4418,-1.442,-1.4423,-1.4426,-1.4428,-1.4427,-1.4387,0,0,0,0,0,-1.4325,-1.4336,-1.4343,-1.4359,-1.4363,-1.4367,-1.4374,-1.4373,-1.4382,-1.4385,-1.4391,-1.4399,-1.4411,-1.4419,-1.443,-1.4452,-1.4454,-1.4461,-1.4463,-1.4465,-1.4467,-1.4479,-1.4482,-1.4447,-1.4447,-1.4447,0,0,-1.4334,-1.4339,-1.4347,-1.4361,-1.4367,-1.4379,-1.437,-1.4383,-1.4392,-1.4387,-1.4404,-1.4409,-1.4419,-1.4438,-1.4447,-1.4443,-1.4477,-1.4467,-1.4469,-1.447,-1.4481,-1.4484,-1.4487,-1.4448,-1.4448,-1.4448,0,0,-1.4356,-1.4361,-1.4376,-1.4382,-1.4391,-1.4393,-1.4397,-1.4405,-1.4408,-1.4425,-1.4422,-1.4433,-1.4453,-1.446,-1.4466,-1.4491,-1.4489,-1.4495,-1.4507,-1.4518,-1.4521,-1.4524,-1.4532,-1.4535,-1.4497,-1.4497,-1.4497,0,-1.4366,-1.4383,-1.4383,-1.4397,-1.4403,-1.4399,-1.4414,-1.442,-1.4433,-1.4437,-1.4432,-1.4458,-1.4464,-1.4485,-1.4491,-1.4496,-1.45,-1.4494,-1.4521,-1.4523,-1.4525,-1.4534,-1.4537,-1.4498,-1.4498,-1.4498,-1.4498,0,-1.4395,-1.4407,-1.4418,-1.4429,-1.4437,-1.4451,-1.4453,-1.4461,-1.4461,-1.4464,-1.4481,-1.4489,-1.4502,-1.4507,-1.4507,-1.4528,-1.4525,-1.452,-1.4511,-1.4529,-1.4537,-1.454,-1.4499,-1.4499,-1.4499,-1.4498,0,0,-1.4423,-1.4435,-1.4438,-1.4443,-1.4453,-1.4463,-1.4477,-1.4488,-1.4495,-1.4504,-1.4516,-1.4533,-1.4529,-1.4536,-1.4537,-1.4546,-1.4565,-1.4541,-1.4541,-1.4545,-1.4589,-1.4592,-1.4596,-1.4564,-1.4564,-1.4565,-1.4588,0,-1.4446,-1.447,-1.447,-1.4492,-1.4503,-1.45,-1.4512,-1.4519,-1.4523,-1.4533,-1.4537,-1.4549,-1.4543,-1.4547,-1.4556,-1.4561,-1.4574,-1.4559,-1.4575,-1.4575,-1.4572,-1.46,-1.4603,-1.4625,-1.4591,-1.4592,-1.4592,0,-1.4476,-1.4485,-1.4507,-1.4515,-1.452,-1.4531,-1.4541,-1.4551,-1.456,-1.4562,-1.4569,-1.4569,-1.4583,-1.4574,-1.4594,-1.4584,-1.459,-1.4593,-1.4594,-1.4595,-1.4584,-1.4601,-1.4632,-1.4635,-1.4597,-1.4597,-1.4596,0,-1.4494,-1.4512,-1.4527,-1.4532,-1.4542,-1.4549,-1.4554,-1.4561,-1.4569,-1.4578,-1.4583,-1.4594,-1.4601,-1.461,-1.4612,-1.4605,-1.4632,-1.4623,-1.4634,-1.4634,-1.464,-1.4639,-1.4671,-1.4645,-1.4645,-1.4645,-1.4645,0,-1.4519,-1.4533,-1.4535,-1.4545,-1.4561,-1.4561,-1.4577,-1.4581,-1.4588,-1.4599,-1.4597,-1.4607,-1.461,-1.4621,-1.4623,-1.4639,-1.4642,-1.4644,-1.4645,-1.4644,-1.4644,-1.4648,-1.4647,-1.4645,-1.4645,-1.4645,-1.4645,0,-1.4541,-1.4544,-1.456,-1.4568,-1.457,-1.4581,-1.4588,-1.4598,-1.4601,-1.4614,-1.4617,-1.4623,-1.4635,-1.4639,-1.4654,-1.4656,-1.4674,-1.4674,-1.4671,-1.4671,-1.4682,-1.4681,-1.4717,-1.4722,-1.4693,-1.4693,-1.4693,0,-1.4557,-1.4567,-1.4576,-1.4582,-1.4587,-1.4598,-1.4605,-1.4606,-1.4614,-1.4624,-1.4632,-1.4645,-1.4655,-1.4675,-1.4681,-1.4692,-1.4692,-1.4704,-1.4693,-1.4693,-1.4691,-1.4691,-1.4692,-1.4705,-1.4706,-1.4706,-1.4706,0,-1.4584,-1.4585,-1.4594,-1.4605,-1.4613,-1.4621,-1.4629,-1.4635,-1.4637,-1.4646,-1.4658,-1.4666,-1.4681,-1.4694,-1.4706,-1.4711,-1.4709,-1.4709,-1.4713,-1.4712,-1.471,-1.4711,-1.4676,-1.4708,-1.4708,-1.4708,-1.4708,-1.4708,-1.4604,-1.4613,-1.462,-1.4631,-1.4637,-1.4644,-1.4653,-1.4657,-1.4667,-1.4679,-1.468,-1.4693,-1.4702,-1.4718,-1.4723,-1.4735,-1.4731,-1.4736,-1.4737,-1.4738,-1.4739,-1.4709,-1.4737,-1.4737,-1.4737,-1.4737,-1.4737,0,-1.4631,-1.4635,-1.4645,-1.4656,-1.4664,-1.4661,-1.467,-1.4677,-1.4689,-1.4697,-1.4706,-1.4721,-1.4733,-1.4739,-1.4751,-1.4759,-1.4758,-1.4762,-1.4761,-1.4762,-1.4741,-1.4737,-1.4762,-1.4762,-1.4762,-1.4762,-1.4762,-1.4762,-1.4646,-1.4661,-1.4662,-1.468,-1.4684,-1.4697,-1.4702,-1.4709,-1.4715,-1.4731,-1.4741,-1.4744,-1.4752,-1.4764,-1.4775,-1.4777,-1.4781,-1.4785,-1.4786,-1.4766,-1.4764,-1.4761,-1.4757,-1.4786,-1.4786,-1.4806,-1.4807,-1.4807]},{"header":{"parameterUnit":"m.s-1","parameterCategory":1,"la1":30.2991,"la2":30.254,"lo1":-89.0895,"lo2":-89.0444,"dy":0.0017,"dx":0.0017,"nx":28,"ny":28,"refTime":"2025-04-29T09:00:00:Z","depth":0,"parameterNumber":3,"parameterNumberName":"V-component_of_WINDS"},"data":[0,0,0,0,0,0,0,0,0,0,0,0,0,0,0,0,0,0,0,0,0,0,0,0,0,0,0,0,0,0,0,0,0,0,0,0,0,0,0,0,0,0,0,0,0,0,0,0,0,0,0,0,0,0,0,0,0,0,3.6075,3.6076,0,3.6111,3.6111,3.6112,3.6093,3.6092,3.6091,3.609,3.6123,3.6125,3.6127,0,0,0,0,0,0,0,0,0,0,0,0,0,3.5987,3.5989,3.6075,3.6076,3.6076,3.6111,3.6111,3.6112,3.6093,3.6092,3.6091,3.609,3.6123,3.6125,3.6127,0,0,0,0,0,0,0,0,0,0,0,0,0,3.6024,3.5989,3.6075,3.6071,3.6071,3.6111,3.6111,3.6112,3.6094,3.6092,3.6091,3.609,3.6122,3.6125,3.6127,3.6172,0,0,3.6135,3.6136,0,0,0,0,0,0,0,0,3.6022,3.6027,3.6071,3.6072,3.6072,3.6096,3.6092,3.6132,3.6094,3.6085,3.609,3.6089,3.6115,3.6118,3.6128,3.6173,3.6175,3.6136,3.6137,3.6138,3.6139,0,0,0,0,0,0,0,3.6019,3.6026,3.6089,3.6072,3.6072,3.6066,3.607,3.61,3.6107,3.6086,3.6084,3.6089,3.6115,3.6126,3.6129,3.6175,3.6135,3.6138,3.6139,3.614,3.6256,3.6258,0,0,0,0,0,0,3.6018,3.6024,3.6088,3.609,3.6043,3.6069,3.6073,3.609,3.6107,3.6109,3.609,3.6088,3.6122,3.6126,3.613,3.6181,3.6138,3.6141,3.6142,3.6255,3.6257,3.6258,0,0,0,0,0,0,3.6016,3.6024,3.6087,3.6057,3.6064,3.6072,3.6091,3.6091,3.6102,3.6111,3.6112,3.61,3.6121,3.6126,3.6161,3.6182,3.6142,3.6144,3.6253,3.6255,3.6258,3.6286,0,0,0,0,0,0,3.6013,3.6023,3.6041,3.6057,3.6066,3.6119,3.6092,3.6093,3.6107,3.6104,3.612,3.6121,3.612,3.6157,3.6164,3.6185,3.6146,3.6251,3.6254,3.6257,3.6283,3.6289,3.6294,0,0,0,0,0,3.601,3.6047,3.6042,3.605,3.6089,3.612,3.6125,3.6124,3.6109,3.6126,3.6131,3.6121,3.6179,3.6161,3.6168,3.6191,3.625,3.6253,3.6257,3.6281,3.6288,3.6294,0,0,0,0,0,0,3.6032,3.6049,3.6044,3.6087,3.6103,3.6117,3.6139,3.6132,3.6151,3.6148,3.6145,3.6148,3.6185,3.6191,3.6171,3.6234,3.6212,3.6217,3.6228,3.6235,3.624,3.6237,3.6149,0,0,0,0,0,3.6042,3.6068,3.6081,3.6118,3.6126,3.6131,3.6145,3.6143,3.6158,3.6164,3.6172,3.6186,3.6207,3.6222,3.6242,3.6284,3.6287,3.6303,3.6309,3.6313,3.6317,3.6338,3.6345,3.627,3.6269,3.6269,0,0,3.6063,3.6076,3.6092,3.6123,3.6134,3.6159,3.6137,3.6164,3.6182,3.6168,3.6201,3.6208,3.6223,3.6262,3.6279,3.6268,3.6338,3.6317,3.6321,3.6322,3.6342,3.6349,3.6356,3.6272,3.6271,3.6271,0,0,3.6113,3.6126,3.6158,3.617,3.6188,3.6191,3.6199,3.6214,3.6218,3.6252,3.6242,3.6262,3.63,3.631,3.6321,3.6374,3.6364,3.6381,3.6409,3.6429,3.6435,3.644,3.6458,3.6464,3.6385,3.6385,3.6385,0,3.6136,3.6175,3.6174,3.6203,3.6216,3.6205,3.6236,3.6247,3.6271,3.6279,3.6267,3.6313,3.6323,3.6363,3.6376,3.6386,3.6393,3.6379,3.6435,3.644,3.6445,3.6461,3.6468,3.6387,3.6387,3.6387,3.6387,0,3.6201,3.6228,3.6251,3.6274,3.629,3.6319,3.6322,3.6338,3.6335,3.6339,3.6372,3.6384,3.6405,3.6415,3.6412,3.6454,3.6447,3.6435,3.6413,3.6454,3.6469,3.6476,3.639,3.6389,3.6388,3.6388,0,0,3.6266,3.6289,3.6297,3.6307,3.6326,3.6346,3.6374,3.6396,3.6409,3.6425,3.6447,3.6479,3.6468,3.648,3.6477,3.6496,3.6535,3.6481,3.6482,3.649,3.6581,3.6589,3.6596,3.653,3.6531,3.6532,3.6579,0,3.6316,3.6367,3.6367,3.6413,3.6436,3.6426,3.645,3.6463,3.6468,3.6487,3.6491,3.6513,3.6498,3.6504,3.6522,3.6527,3.6553,3.6524,3.6548,3.6549,3.6544,3.6605,3.6614,3.6658,3.6585,3.6587,3.6587,0,3.6382,3.6401,3.6449,3.6463,3.6473,3.6495,3.6514,3.6534,3.6548,3.6549,3.6563,3.6557,3.6584,3.6562,3.6598,3.6578,3.6588,3.6592,3.6594,3.6595,3.657,3.6606,3.6672,3.6678,3.6597,3.6596,3.6596,0,3.6422,3.646,3.6493,3.6502,3.652,3.6535,3.6543,3.6556,3.6569,3.6586,3.6594,3.6613,3.6624,3.6638,3.6638,3.6622,3.6674,3.6652,3.6674,3.6674,3.6684,3.6684,3.6751,3.6694,3.6694,3.6693,3.6693,0,3.6477,3.6507,3.6511,3.6531,3.6564,3.6563,3.6594,3.6601,3.6612,3.6632,3.6625,3.6644,3.6643,3.6661,3.6661,3.669,3.6695,3.6696,3.6695,3.6696,3.6696,3.6702,3.6698,3.6695,3.6695,3.6694,3.6694,0,3.6527,3.6532,3.6567,3.6581,3.6585,3.6608,3.6619,3.6638,3.6642,3.6667,3.6673,3.6678,3.67,3.6701,3.6726,3.6726,3.676,3.6757,3.6756,3.6754,3.6776,3.6773,3.6849,3.6858,3.6796,3.6796,3.6797,0,3.6562,3.6584,3.6601,3.6614,3.6623,3.6645,3.6658,3.6658,3.6672,3.6689,3.6705,3.6726,3.6743,3.6777,3.6783,3.6801,3.6797,3.6822,3.68,3.6799,3.6796,3.6794,3.6795,3.6826,3.6827,3.6827,3.6828,0,3.6622,3.6623,3.6643,3.6663,3.6679,3.6695,3.671,3.6721,3.6722,3.6738,3.676,3.6773,3.6798,3.6818,3.6836,3.6843,3.6835,3.6835,3.6841,3.6841,3.6839,3.6839,3.6766,3.6833,3.6833,3.6832,3.6832,3.6832,3.6664,3.6683,3.6698,3.6719,3.6731,3.6744,3.6762,3.6768,3.6787,3.6808,3.6806,3.683,3.6843,3.6866,3.6874,3.6892,3.6883,3.6892,3.6894,3.6896,3.6897,3.6837,3.6895,3.6895,3.6895,3.6895,3.6895,0,3.6723,3.6731,3.6752,3.6772,3.6789,3.6782,3.6797,3.6811,3.6833,3.6845,3.6862,3.6887,3.6906,3.6913,3.6931,3.6944,3.6941,3.6949,3.6947,3.6949,3.6905,3.6897,3.6951,3.6951,3.6951,3.6951,3.6951,3.6951,3.6755,3.6786,3.6788,3.6824,3.6832,3.6857,3.6866,3.6878,3.6888,3.6916,3.6932,3.6937,3.6946,3.6965,3.6982,3.6984,3.699,3.6999,3.6999,3.6958,3.6952,3.6946,3.6939,3.7001,3.7001,3.7041,3.7041,3.7042]}]]